Regional Weather Roundup
Issued by NWS

Home | Current Version | Previous Version | Text Only | Print | Product List | Glossary On
Versions: 1 2 3 4 5 6 7 8 9 10 11 12 13 14 15 16 17 18 19 20 21 22 23 24 25 26 27
000
ASUS45 KTFX 230910
RWRMT
MONTANA REGIONAL WEATHER ROUNDUP
NATIONAL WEATHER SERVICE GREAT FALLS MT
300 AM MDT FRI JUN 23 2017

NOTE: "FAIR" INDICATES FEW OR NO CLOUDS BELOW 12000 FEET WITH NO
SIGNIFICANT WEATHER AND/OR OBSTRUCTIONS TO VISIBILITY.

MTZ001>007-043-231000-
WEST OF THE DIVIDE

CITY           SKY/WX    TMP DP  RH WIND       PRES   REMARKS
KALISPELL      MOCLDY    42  39  89 CALM      30.22R
MISSOULA       CLEAR     47  36  65 CALM      30.25R
BUTTE          CLEAR     39  31  72 SE3       30.30R
MULLAN PASS    CLEAR     47  27  45 NW6       30.30F
DEER LODGE       N/A     39  34  81 CALM      30.31R
EUREKA           N/A     48  39  71 MISG      30.22R
$$

MTZ008-052>055-231000-
SOUTHWEST MONTANA

CITY           SKY/WX    TMP DP  RH WIND       PRES   REMARKS
BOZEMAN        CLEAR     47  35  63 CALM      30.28R
DILLON         CLEAR     45  31  58 NE3       30.27S
W YELLOWSTONE  CLEAR     32  27  80 CALM      30.31S
ENNIS          CLEAR     43  30  61 CALM      30.33R
THREE FORKS      N/A     38  34  85 CALM      30.24S
$$

MTZ009-010-012-014-046-048-049-054-231000-
EAST SLOPES AND CENTRAL MONTANA

CITY           SKY/WX    TMP DP  RH WIND       PRES   REMARKS
CUT BANK       CLOUDY    47  41  80 W5        30.28S
GREAT FALLS    CLEAR     38  34  85 NW3       30.29R
MALMSTROM AFB  CLEAR     41  37  86 CALM      30.29R
HELENA         CLEAR     45  36  70 W6        30.27S
CHOTEAU          N/A     43  36  75 CALM      30.31S
$$

MTZ011-013-016-021-045-047-050-051-231000-
NORTH CENTRAL MONTANA

CITY           SKY/WX    TMP DP  RH WIND       PRES   REMARKS
HAVRE          CLEAR     41  37  86 SW9       30.26R
LEWISTOWN      CLEAR     38  33  82 SW7       30.28S
N BAR RANCH      N/A     43  32  65 W5        30.30R
CHINOOK          N/A     37  36  93 CALM      30.24S
FORT BENTON      N/A     46  39  76 CALM      30.30S
$$

MTZ017>020-022>027-061-062-231000-
NORTHEAST MONTANA

CITY           SKY/WX    TMP DP  RH WIND       PRES   REMARKS
GLASGOW        CLOUDY    46  40  79 NW8       30.18R
JORDAN           N/A     49  38  65 NW10      30.21S
SIDNEY         CLOUDY    49  43  80 NW14      30.10S
WOLF POINT     PTCLDY    47  41  80 W8        30.16S
MALTA          MOCLDY    43  39  87 W10       30.22S
PLENTYWOOD       N/A     45  43  93 W13       30.08S
POPLAR           N/A     45  41  87 W8        30.15R
$$

MTZ028>42-056>058-231000-
SOUTHCENTRAL AND SOUTHEAST MONTANA

CITY           SKY/WX    TMP DP  RH WIND       PRES   REMARKS
BAKER          CLOUDY    51  41  68 NW16G29   30.16R
BILLINGS       CLEAR     50  37  61 S6        30.26F
LIVINGSTON     CLEAR     36  32  85 VRB5      30.29S
MILES CITY     CLOUDY    55  38  52 NW13      30.20S
BIG TIMBER     CLEAR     39  36  87 SW6       30.30F
FORSYTH          N/A     54  39  58 W8        30.22F
ROUNDUP          N/A     45  31  58 N5        30.15F
$$

REGIONAL REPORTS...DAKOTAS

CITY           SKY/WX    TMP DP  RH WIND       PRES   REMARKS
WILLISTON      CLOUDY    49  44  83 W10       30.07R
MINOT          CLOUDY    55  47  74 NW23G30   29.92S
DICKINSON      CLOUDY    49  46  90 NW16G25   30.05R
BEACH          MOCLDY    48  45  87 NW17      30.16R
CROSBY         MOCLDY    48  43  81 NW16G22   30.03S
TIOGA          CLOUDY    50  50 100 NW15      30.03S
WATFORD CITY   CLOUDY    52  45  76 NW12      30.05S
BISMARCK       CLOUDY    57  47  69 NW20G28   29.96R
GRAND FORKS    CLOUDY    61  54  77 NW18G24   29.71R
FARGO          CLEAR     57  48  72 W8        29.74S
BUFFALO SD       N/A     53  44  71 NW23      30.08R
RAPID CITY     CLOUDY    54  37  52 NW20G30   30.13F
$$

REGIONAL REPORTS...WYOMING/IDAHO/WASHINGTON

CITY           SKY/WX    TMP DP  RH WIND       PRES   REMARKS
GILLETTE       CLOUDY    46  37  71 NW8       30.26R
SHERIDAN       CLEAR     43  37  79 W8        30.28S
BUFFALO WY     CLEAR     44  36  73 N7        30.28F
CODY           CLEAR     45  35  68 CALM      30.32F
YELLOWSTONE LA   N/A     32  27  81 CALM      30.35F
IDAHO FALLS    CLEAR     50  37  61 N9        30.20R
SALMON         CLEAR     45  30  57 CALM      30.24R
BOISE          CLEAR     55  36  48 NW6       30.13R
SPOKANE        CLEAR     57  38  48 CALM      30.21S
$$

REGIONAL REPORTS...ALBERTA

CITY           SKY/WX    TMP DP  RH WIND       PRES   REMARKS
EDMONTON       PTCLDY    45  39  81 W6        30.20S
CALGARY        MOCLDY    50  43  76 W10G17    30.27F
LETHBRIDGE     CLOUDY    46  43  87 W6        30.26S
MEDICINE HAT   CLEAR     39  36  87 S3        30.23S
WATERTON GATE    N/A     41  39  93 S1          N/A
CARDSTON         N/A     45  41  87 S3          N/A
MILK RIVER       N/A     43  39  87 W7          N/A
$$

REGIONAL REPORTS...SASKATCHEWAN

CITY           SKY/WX    TMP DP  RH WIND       PRES   REMARKS
SWIFT CURRENT  PTCLDY    39  36  87 W9        30.14S
REGINA         PTCLDY    46  41  81 NW13      30.04S
SASKATOON      CLEAR     39  37  93 W9        30.10S
VAL MARIE        N/A     36  34  93 NW5         N/A
ROCKGLEN         N/A     41  36  81 NW9         N/A
ASSINIBOIA       N/A     45  39  81 W7          N/A
$$




USA.gov is the U.S. government's official web portal to all federal, state and local government web resources and services.